Showing default

HJS-7D, 65620

Orbit data source: Space-Track

HJS-7D, 65620 is a payload satellite owned by Zhongguo Xingwang (CN) in LEO that was launched on Tue, 16 Sep 2025 UTC via a CHANG ZHENG 2C/YZ-1S launch vehicle from the Jiuquan Satellite Launch Center, China (JSC). Payload-class satellites include a variety of spacecraft equipped with specific instruments for various scientific and technological missions. These include communications satellites like Starlink; space stations such as the ISS; scientific satellites like the Hubble; Earth observation satellites from companies like Planet Labs, Umbra, and HawkEye 360; GPS; miniature CubeSats for education and research; and military/defense satellites.

Loading next visibility...
Identifier
65620, 2025-209D
Orbit
LEO
Country
Flag of CNCN / PRC
Related business
Manufacturer
YINNT
Mission
Operational Civil Communications
Bus & Motor
Unknown
Mass
~300 kg wet, ~300 kg dry
Launch date (UTC)
2025-09-16 (9 months ago)
Launch vehicle
CHANG ZHENG 2C/YZ-1S
Launch site
Jiuquan Satellite Launch Center, China (JSC)
Object type
Payload
Rocket body
Debris
Shape & HBR
Box + 2 Pan, 1.1 m
Radar Cross Section
2.320 m², Large (>1 m²)

Expand to show TLE details & history
Last TLE update: 10 hours ago

TLE from 10 hours ago
0 HJS-7D
1 65620U 25209D   26171.42006833 -.00000067  00000-0  11006-3 0  9995
2 65620  50.0016 346.7072 0004962  51.3589 308.7732 13.41473328 38078
Epoch: 2026-06-20T10:04Z
TLE epoch observation values (Epoch: 2026-06-20T10:04:53.903Z)
Latitude
-0.00003°
Longitude
-73.15237°
Altitude
1,101.981 km
Speed
7.304 km/s
True Right ascension
23h 06m 49s
True Declination
0° 00' 00"
Sunlit
Object was in daylight at epoch
Visualization orbit readout
Latitude
Unknown
Longitude
Unknown
Altitude
Unknown
Speed
Unknown
Apparent Right ascension
Unknown
Apparent Declination
Unknown
Sunlit
N/A
Visualization observer readout
Local Sidereal Time
07:18:50
Azimuth
Unknown
Elevation
Unknown
Doppler factor
Unknown
Orbital elements
Apogee altitude
1,108.218 km
Perigee altitude
1,100.792 km
Semi-major axis
7,482.642 km
Eccentricity
0.0005
Inclination
50.0016°
RAAN
346.7072°
Arg. of periapsis
51.3589°
True anomaly
308.72885°
Mean anomaly
308.7732°
Eccentric anomaly
308.75103°
Mean motion
3.35321 °/min
Orbital period
107.36 mins
BSTAR
0.00011006
Loading maneuver chart data...
Computing Atmospheric mass density...
Loading historical data...
Loading historical data...
Loading historical data...
Loading historical data...
Loading historical data...
Loading historical data...
Loading historical data...
Other satellites on launch #209 in the year 2025 (2025-09-16 UTC)

Documentation

Showing up to 5 results
|